www.pogodaiklimat.ru
ПОГОДА в Маасине
Время
(UTC), дата
09 11.10
12 11.10
15 11.10
18 11.10
21 11.10
00 12.10
03 12.10
06 12.10
09 12.10
12 12.10
15 12.10
18 12.10
21 12.10
00 13.10
03 13.10
06 13.10
09 13.10
12 13.10
15 13.10
18 13.10
21 13.10
00 14.10
03 14.10
06 14.10
09 14.10
12 14.10
15 14.10
18 14.10
21 14.10
00 15.10
03 15.10
06 15.10
09 15.10
12 15.10
15 15.10
18 15.10
21 15.10
00 16.10
03 16.10
06 16.10
09 16.10
12 16.10
15 16.10
18 16.10
21 16.10
00 17.10
03 17.10
06 17.10
09 17.10
12 17.10
15 17.10
18 17.10
21 17.10
00 18.10
03 18.10
Ветер
(напр.,м/с)
Видим. Явления Облачность Т
(С)
Тd
(С)
f
(%)
Тe
(С)
Тes
(С)
Комфортность P
(гПа)
Po
(гПа)
Тmin
(С)
Tmax
(С)
R
(мм)
R24
(мм)
S
(см)
ЮЗ 1 20 км мгла {туман} 5/3 360 м
[Cb cap Ac trans Ci fib]
+28.0 +24.3 80 +39 +39 очень
душно
1008.1 999.9
СЗ 2 20 км мгла {туман} 3/1 500 м
[Cu med, cong Ac trans Ci fib]
+26.0 +23.6 87 +35 +35 очень
душно
1009.9 1001.7 +29.0
СЗ 3 20 км зарница {туман} 9/3 360 м
[Cb cap Ac As]
+24.8 +21.8 83 +32 +32 очень
душно
1010.4 1002.2
С 2 20 км зарница {туман} 4/3 360 м
[Cb cap Ac trans Ci fib]
+23.6 +19.9 80 +29 +29 душно 1009.2 1001.0
В 2 20 км мгла {туман} 4/1 500 м
[Cu med, cong Ac As]
+23.8 +22.4 92 +31 +31 очень
душно
1009.2 1001.0
ЮВ 3 22 км осадки на расстоянии {туман} 6/3 360 м
[Cb cap Ac trans Ci fib]
+26.0 +24.1 89 +36 +39 очень
душно
1010.2 1002.0 +23.4 18
Ю 1 22 км осадки на расстоянии {туман} 6/3 360 м
[Cb cap Ac trans Ci fib]
+29.6 +24.9 76 +42 +55 опасность
перегрева
1008.6 1000.4
Ю 2 22 км осадки на расстоянии {туман} 6/3 360 м
[Cb cap Ac trans Ci fib]
+31.2 +25.8 73 +46 +53 опасность
перегрева
1006.7 998.5
Ю 1 22 км мгла {туман} 8/1 500 м
[Cu med, cong Ac trans Cs]
+30.0 +26.1 80 +45 +46 опасность
перегрева
1007.1 998.9
С 3 20 км зарница {туман} 5/1 360 м
[Cb cap Ac trans Ci fib]
+26.2 +23.8 87 +36 +36 очень
душно
1008.9 1000.7 +31.2
В 1 20 км зарница {туман} 9/3 360 м
[Cb cap Ac As]
+25.2 +23.0 88 +34 +34 очень
душно
1009.4 1001.2
СЗ 2 20 км гроза без осадков {туман} 9/4 360 м
[Cb cap Ac As]
+25.4 +23.8 91 +35 +35 очень
душно
1008.9 1000.7
С 1 20 км мгла {гроза, туман} 9/3 500 м
[Cu med, cong Ac As]
+24.2 +22.8 92 +32 +32 очень
душно
1009.0 1000.8
ЮЗ 2 20 км мгла {гроза, туман} 8/1 500 м
[Cu med, cong Ac trans Ci sp]
+26.0 +22.4 81 +34 +38 очень
душно
1011.4 1003.2 +24.0
ЮЗ 2 20 км мгла {туман} 6/3 500 м
[Cu med, cong Ac trans Ci sp]
+29.0 +23.4 72 +39 +50 очень
душно
1010.1 1001.9
С 2 20 км слаб. ливневой дождь, в посл. час гроза {туман} 9/4 360 м
[Cb cap Ac As]
+26.0 +23.8 88 +36 +39 очень
душно
1008.4 1000.2 0.0
штиль 0 20 км мгла {туман} 8/4 360 м
[Cb cap Ac trans Ci sp]
+29.0 +22.8 69 +38 +39 очень
душно
1008.6 1000.4 0.0
штиль 0 20 км мгла {туман} 5/3 500 м
[Cu med, cong Ac trans]
+26.0 +21.9 78 +33 +33 очень
душно
1011.0 1002.8 +30.2 0.0
СВ 3 20 км зарница {туман} 4/3 360 м
[Cb cap Ci fib]
+24.6 +21.0 80 +31 +31 очень
душно
1011.2 1003.0
СЗ 3 20 км мгла {туман} 4/3 500 м
[Cu med, cong Ac trans]
+24.0 +22.1 89 +31 +31 очень
душно
1010.1 1001.9
С 2 20 км мгла {туман} 3/1 500 м
[Cu med, cong Ci fib]
+24.0 +20.6 81 +30 +30 очень
душно
1009.7 1001.5
Ю 1 22 км осадки на расстоянии {туман} 3/1 360 м
[Cb cap Ac trans Ci fib]
+27.0 +24.9 88 +39 +44 очень
душно
1011.2 1003.0 +24.0 0.0
ЮЗ 3 22 км осадки на расстоянии {туман} 4/3 360 м
[Cb cap Ac trans Ci fib]
+30.6 +25.4 74 +45 +55 опасность
перегрева
1011.1 1002.9
С 4 20 км слаб. ливневой дождь, в посл. час гроза {туман} 9/5 360 м
[Cb cap Ac As Ci fib]
+27.0 +24.6 87 +38 +41 очень
душно
1009.8 1001.6 0.6
СВ 3 20 км осадки на расстоянии {гроза, туман} 9/3 360 м
[Cb cap Ac As Cs]
+25.6 +23.2 87 +34 +34 очень
душно
1009.6 1001.4
С 3 20 км мгла {гроза, туман} 9/3 500 м
[Cu med, cong Ac As]
+25.0 +23.1 89 +33 +33 очень
душно
1011.7 1003.5 +31.6
С 2 20 км мгла {туман} 9/3 500 м
[Cu med, cong Ac As]
+25.0 +23.4 91 +34 +34 очень
душно
1011.9 1003.7
С 3 20 км зарница {туман} 9/3 360 м
[Cb cap Ac As]
+24.4 +22.8 91 +32 +32 очень
душно
1010.7 1002.5
С 3 20 км мгла {туман} 6/1 500 м
[Cu med, cong Ac trans Ci fib]
+24.6 +23.2 92 +33 +33 очень
душно
1010.1 1001.9
С 2 20 км мгла {туман} 9/3 500 м
[Cu med, cong Ac As Ci sp]
+27.0 +24.3 85 +38 +40 очень
душно
1011.7 1003.5 +24.0 0.6
З 4 20 км мгла {туман} 9/3 500 м
[Cu med, cong Ac As Ci sp]
+28.0 +24.0 79 +39 +44 очень
душно
1011.2 1003.0 0.0
В 4 20 км мгла {туман} 9/3 500 м
[Cu med, cong Ac As Ci sp]
+30.5 +23.4 66 +41 +45 опасность
перегрева
1008.4 1000.2 0.0
штиль 0 20 км мгла {туман} 5/1 500 м
[Cu med, cong Ac trans Ci fib]
+30.0 +23.3 67 +40 +41 очень
душно
1008.2 1000.0
С 2 20 км мгла {туман} 5/3 500 м
[Cu med, cong Ac As]
+27.8 +22.1 71 +36 +36 очень
душно
1010.4 1002.2 +30.5
С 3 20 км мгла {туман} 3/3 500 м
[Cu med, cong Ci fib]
+26.0 +21.3 75 +33 +33 очень
душно
1010.6 1002.4
штиль 0 20 км мгла {туман} 1/1 500 м
[Cu med, cong Ci fib]
+24.0 +22.1 89 +31 +31 очень
душно
1009.3 1001.1
СЗ 4 20 км мгла {туман} 3/1 500 м
[Cu med, cong Ci sp]
+23.6 +21.4 87 +30 +30 очень
душно
1009.5 1001.3
штиль 0 20 км мгла {туман} 6/3 500 м
[Cu med, cong Ci fib]
+25.5 +24.2 93 +35 +41 очень
душно
1010.1 1001.9 +23.0 0.0
штиль 0 20 км слаб. ливневой дождь {туман} 9/4 500 м
[Cu med, cong Ac As]
+29.0 +25.7 82 +43 +49 опасность
перегрева
1009.4 1001.2 0.4
СВ 4 20 км гроза, ливневой дождь 9/6 360 м
[Cb cap Ac As]
+25.8 +24.7 94 +37 +38 очень
душно
1007.2 999.0 12
СВ 4 20 км осадки на расстоянии {гроза, ливн. осадки} 9/3 360 м
[Cb cap Ac cuf Cs]
+25.5 +24.8 96 +36 +36 очень
душно
1007.7 999.5 5
СЗ 2 20 км мгла {гроза} 9/3 500 м
[Cu med, cong Ac As]
+25.4 +22.1 82 +33 +33 очень
душно
1009.5 1001.3 +29.0 5
З 1 20 км в посл. час ливневой дождь {туман} 9/3 360 м
[Cb cap Ac As]
+24.6 +20.1 76 +30 +30 очень
душно
1009.8 1001.6 1
С 2 20 км мгла {туман} 9/3 500 м
[Cu med, cong Ac As]
+24.0 +22.1 89 +31 +31 очень
душно
1009.2 1001.0 1
СЗ 2 20 км зарница {туман} 9/3 360 м
[Cb cap Ac As]
+24.0 +21.8 88 +31 +31 очень
душно
1009.8 1001.6
штиль 0 20 км осадки на расстоянии {туман} 9/5 360 м
[Cb cap Ac As]
+24.5 +23.8 96 +33 +35 очень
душно
1011.6 1003.4 +24.0 18
штиль 0 20 км мгла {туман} 9/4 500 м
[Cu Sc Ac As]
+27.2 +25.4 90 +40 +46 очень
душно
1010.2 1002.0
штиль 0 25 км осадки на расстоянии {туман} 9/4 360 м
[Cb cap Ac As]
+29.0 +25.1 80 +42 +46 опасность
перегрева
1007.7 999.5
штиль 0 22 км мгла {туман} 9/3 500 м
[Cu med, cong Ac trans Cs]
+28.0 +25.1 84 +40 +41 очень
душно
1008.2 1000.0
С 2 20 км мгла {туман} 9/3 500 м
[Cu med, cong Ac As]
+25.8 +23.9 89 +35 +35 очень
душно
1010.2 1002.0 +29.0
С 2 20 км мгла {туман} 5/1 500 м
[Cu med, cong Ac trans Ci sp]
+24.4 +22.8 91 +32 +32 очень
душно
1010.2 1002.0
С 4 20 км мгла {туман} 4/1 500 м
[Cu med, cong Ac trans Ci sp]
+24.0 +22.6 92 +31 +31 очень
душно
1008.6 1000.4
С 2 20 км мгла {туман} 5/1 500 м
[Cu med, cong Ac trans Ci fib]
+23.6 +22.2 92 +31 +31 очень
душно
1009.2 1001.0
штиль 0 22 км мгла {туман} 4/1 500 м
[Cu med, cong Ci fib]
+26.0 +20.4 71 +32 +39 очень
душно
1011.6 1003.4 +23.2
ЮЗ 2 22 км мгла {туман} 6/4 500 м
[Cu med, cong Ac trans Ci fib]
+29.0 +23.4 72 +39 +49 очень
душно
1010.6 1002.4
Местоположение метеостанции Маасин (Филиппины): широта 10.13 долгота 124.83 высота над уровнем моря 72 м.
В архиве по умолчанию представлена погода в Маасине за последнюю неделю. Архивные данные за месяц целиком и за предыдущие месяцы, начиная с января 2011 года, Вы можете получить, выбрав интересующий диапазон дат из раскрывающегося списка и нажав кнопку "Найти!".
*Определитесь, кто Вы:
Внимание! Время в таблицах - всемирное. Для получения местного времени необходимо прибавить поправку, которая равна 8 ч.
Смотрите также архив погоды в соседних городах и на ближайших метеорологических станциях:
Партнеры нашего сайта:      
Пояснения к столбцам:
  • Ветер - указаны скорость ветра в м/с - средняя за 10 мин, порывы в срок и между сроками (в фигурных скобках) и направление, откуда дует ветер: С - северный,
  • СВ - северо-восточный, В - восточный, ЮВ - юго-восточный, Ю - южный, ЮЗ - юго-западный, З - западный, СЗ - северо-западный.
  • Видимость - горизонтальная дальность видимости в метрах или километрах. При видимости от 1 до 10 км при отсутствии осадков обычно наблюдается дымка, при ухудшении видимости до 1 км и менее - туман. В сухую погоду видимость может ухудшаться дымом, пылью или мглою.
  • Явления - указаны атмосферные явления, наблюдавшиеся в срок или в последний час перед сроком; фигурными скобками обозначены явления, наблюдавшиеся между сроками (за 1-3 часа до срока); квадратными скобками обозначены град или гололедные отложения с указанием их диаметра в мм.
  • Облачность - указаны через наклонную черту общая и нижняя облачность в баллах и высота нижней границы облаков в метрах; квадратными скобками обозначены формы облаков: Ci - перистые, Cs - перисто-слоистые, Cc - перисто-кучевые, Ac - высококучевые, As - высокослоистые, Sc - слоисто-кучевые, Ns - слоисто-дождевые, Cu - кучевые, Cb - кучево-дождевые. Подробнее классификацию облаков см. в Атласе облаков (PDF).
  • T - Температура воздуха - температура, измеренная на высоте 2 м над землей.
  • Td - Температура точки росы - температура, при понижении до которой содержащийся в воздухе водяной пар достигнет насыщения.
  • f - Относительная влажность воздуха - влажноcть воздуха, измеренная на высоте 2 м над землей.
  • Te - Эффективная температура - температура, которую ощущает одетый по сезону человек в тени. Характеристика душности погоды. При расчете учитывается влияние влажности воздуха и скорости ветра на теплоощущения человека.
  • Tes - Эффективная температура на солнце - температура, которую ощущает человек, с поправкой на солнечный нагрев. Характеристика знойности погоды. Зависит от высоты солнца над горизонтом, облачности и скорости ветра. Ночью, в пасмурную погоду, а также при ветре 12 м/с и более поправка равна нулю.
  • P - Атмосферное давление - приведенное к уровню моря атмосферное давление.
  • Po - Атмосферное давление - измеренное на уровне метеостанции атмосферное давление.
  • Tmin - Минимальная температура - минимум температуры воздуха на высоте 2 м над землей.
  • Tmax - Максимальная температура - максимум температуры воздуха на высоте 2 м над землей.
  • R - Количество осадков - Количество выпавших осадков за период времени, мм. При наведении курсора мыши на число - период времени, за который выпало указанное количество осадков.
  • R24 - Количество осадков - Количество выпавших осадков за 24 часа, мм.
  • S - Снежный покров - Высота снежного покрова, см. При наведении курсора мыши на число - состояние снежного покрова и степень покрытия местности в баллах.